Back to catalog

FENGYUN 1C DEB

AlivePO
NORAD 30326·DEBRIS·🇨🇳 China

Launched May 10, 1999 from Taiyuan Satellite Launch Center

Loading…

Next Passes (next 24 hours)

TLE

FreshSource: Space-Track

Epoch: Sep 14, 2026, 11:51 UTC

1 30326U 99025AAM 26257.49389282  .00000086  00000-0  10144-3 0  9993
2 30326  98.6154 128.3540 0141860 358.8037   1.2762 13.85574963992746

Track FENGYUN 1C DEB in real time with AllMySat

Download on the App Store